| time (UTC) | temp F | wind direction | speed MPH | gust MPH | rain 1hr in | rain 24hr in | rain mn in | humidity % | barometer mb |
| 20260509141520 | 72 | 304 | 6.0 | 10.0 | 0.00 | 0.13 | 0.00 | 81 | 1009.6 |
| 20260509140016 | 71 | 295 | 3.0 | 9.0 | 0.00 | 0.13 | 0.00 | 82 | 1009.7 |
| 20260509134514 | 69 | 306 | 5.0 | 10.0 | 0.00 | 0.13 | 0.00 | 83 | 1009.8 |
| 20260509133013 | 68 | 290 | 4.0 | 10.0 | 0.00 | 0.13 | 0.00 | 84 | 1009.7 |
| 20260509131513 | 68 | 272 | 5.0 | 9.0 | 0.00 | 0.13 | 0.00 | 83 | 1009.5 |
| 20260509130013 | 67 | 287 | 4.0 | 7.0 | 0.00 | 0.13 | 0.00 | 84 | 1009.4 |
| 20260509124514 | 66 | 249 | 2.0 | 5.0 | 0.00 | 0.13 | 0.00 | 84 | 1009.5 |
| 20260509123011 | 65 | 277 | 1.0 | 4.0 | 0.00 | 0.13 | 0.00 | 84 | 1009.3 |
| 20260509121514 | 63 | 288 | 2.0 | 5.0 | 0.00 | 0.13 | 0.00 | 84 | 1009.3 |
| 20260509120013 | 63 | 259 | 2.0 | 4.0 | 0.00 | 0.13 | 0.00 | 84 | 1009.2 |
| 20260509114509 | 63 | 167 | 0.0 | 0.0 | 0.00 | 0.13 | 0.00 | 83 | 1009.0 |
| 20260509113006 | 64 | 167 | 0.0 | 0.0 | 0.00 | 0.13 | 0.00 | 83 | 1008.8 |
| 20260509111504 | 65 | 13 | 0.0 | 0.0 | 0.00 | 0.13 | 0.00 | 81 | 1008.6 |
| 20260509110000 | 66 | 292 | 0.0 | 3.0 | 0.00 | 0.13 | 0.00 | 81 | 1008.5 |
| 20260509104559 | 67 | 282 | 1.0 | 6.0 | 0.00 | 0.13 | 0.00 | 79 | 1008.5 |
| 20260509103101 | 68 | 319 | 7.0 | 12.0 | 0.00 | 0.13 | 0.00 | 80 | 1008.3 |
| 20260509101559 | 69 | 310 | 3.0 | 8.0 | 0.00 | 0.13 | 0.00 | 84 | 1008.3 |
| 20260509094555 | 69 | 193 | 8.0 | 15.0 | 0.00 | 0.13 | 0.00 | 84 | 1006.5 |
| 20260509093058 | 69 | 193 | 10.0 | 19.0 | 0.00 | 0.13 | 0.00 | 84 | 1005.6 |
| 20260509091554 | 69 | 143 | 10.0 | 20.0 | 0.00 | 0.13 | 0.00 | 84 | 1005.2 |
| 20260509090051 | 69 | 156 | 10.0 | 14.0 | 0.00 | 0.13 | 0.00 | 84 | 1005.9 |
| 20260509084554 | 69 | 178 | 10.0 | 16.0 | 0.00 | 0.13 | 0.00 | 84 | 1006.2 |
| 20260509083043 | 68 | 186 | 7.0 | 12.0 | 0.00 | 0.13 | 0.00 | 83 | 1006.6 |
| 20260509081542 | 67 | 166 | 4.0 | 10.0 | 0.00 | 0.13 | 0.00 | 82 | 1007.4 |
| 20260509080049 | 67 | 120 | 7.0 | 9.0 | 0.00 | 0.13 | 0.00 | 82 | 1007.8 |
| 20260509074536 | 66 | 178 | 3.0 | 7.0 | 0.00 | 0.13 | 0.00 | 83 | 1008.4 |
| 20260509073034 | 67 | 195 | 4.0 | 6.0 | 0.00 | 0.13 | 0.00 | 83 | 1009.4 |
| 20260509071530 | 67 | 200 | 3.0 | 8.0 | 0.00 | 0.13 | 0.00 | 82 | 1010.1 |
| 20260509070030 | 67 | 289 | 3.0 | 7.0 | 0.00 | 0.13 | 0.00 | 83 | 1011.0 |
| 20260509064528 | 67 | 288 | 2.0 | 4.0 | 0.00 | 0.13 | 0.00 | 83 | 1010.9 |
| 20260509063026 | 67 | 303 | 3.0 | 7.0 | 0.00 | 0.13 | 0.00 | 82 | 1010.6 |
| 20260509061525 | 67 | 328 | 2.0 | 5.0 | 0.00 | 0.13 | 0.00 | 83 | 1010.2 |
| 20260509060026 | 67 | 343 | 3.0 | 6.0 | 0.00 | 0.13 | 0.00 | 83 | 1010.3 |
| 20260509054520 | 67 | 327 | 3.0 | 4.0 | 0.00 | 0.13 | 0.00 | 83 | 1010.0 |
| 20260509053030 | 67 | 146 | 0.0 | 3.0 | 0.00 | 0.13 | 0.00 | 83 | 1009.4 |
| 20260509051523 | 67 | 171 | 1.0 | 4.0 | 0.00 | 0.13 | 0.00 | 84 | 1009.3 |
| 20260509050016 | 67 | 153 | 2.0 | 4.0 | 0.00 | 0.13 | 0.00 | 84 | 1009.2 |
| 20260509044511 | 68 | 103 | 2.0 | 3.0 | 0.00 | 0.13 | 0.13 | 84 | 1009.5 |
| 20260509043011 | 68 | 110 | 1.0 | 3.0 | 0.00 | 0.13 | 0.13 | 84 | 1009.3 |
| 20260509041512 | 68 | 76 | 2.0 | 5.0 | 0.00 | 0.13 | 0.13 | 84 | 1009.3 |
| 20260509040011 | 69 | 138 | 2.0 | 4.0 | 0.00 | 0.13 | 0.13 | 84 | 1009.0 |
| 20260509034509 | 69 | 148 | 4.0 | 7.0 | 0.00 | 0.13 | 0.13 | 84 | 1008.6 |
| 20260509033009 | 69 | 121 | 3.0 | 7.0 | 0.00 | 0.13 | 0.13 | 84 | 1008.6 |
| 20260509031509 | 69 | 144 | 3.0 | 7.0 | 0.00 | 0.13 | 0.13 | 84 | 1008.3 |
| 20260509030009 | 69 | 150 | 3.0 | 6.0 | 0.00 | 0.13 | 0.13 | 84 | 1008.0 |
| 20260509024508 | 70 | 167 | 3.0 | 6.0 | 0.00 | 0.13 | 0.13 | 84 | 1007.7 |
| 20260509023007 | 70 | 178 | 3.0 | 6.0 | 0.00 | 0.13 | 0.13 | 84 | 1007.8 |
| 20260509021507 | 71 | 151 | 3.0 | 5.0 | 0.00 | 0.13 | 0.13 | 84 | 1007.9 |
| 20260509020012 | 70 | 167 | 2.0 | 5.0 | 0.00 | 0.13 | 0.13 | 84 | 1008.0 |
| 20260509014515 | 70 | 165 | 2.0 | 5.0 | 0.00 | 0.13 | 0.13 | 84 | 1007.8 |
| 20260509013006 | 70 | 150 | 2.0 | 4.0 | 0.00 | 0.13 | 0.13 | 84 | 1007.7 |
| 20260509011506 | 71 | 155 | 0.0 | 3.0 | 0.00 | 0.13 | 0.13 | 83 | 1007.7 |
| 20260509010005 | 71 | 120 | 2.0 | 5.0 | 0.00 | 0.13 | 0.13 | 83 | 1007.0 |
| 20260509004503 | 71 | 134 | 3.0 | 4.0 | 0.00 | 0.13 | 0.13 | 83 | 1007.0 |
| 20260509003001 | 72 | 157 | 2.0 | 4.0 | 0.00 | 0.13 | 0.13 | 83 | 1007.1 |
| 20260509001502 | 72 | 134 | 2.0 | 3.0 | 0.00 | 0.13 | 0.13 | 82 | 1007.4 |
| 20260509000001 | 72 | 142 | 2.0 | 4.0 | 0.00 | 0.13 | 0.13 | 83 | 1007.5 |
| 20260508234600 | 72 | 178 | 1.0 | 5.0 | 0.00 | 0.13 | 0.13 | 83 | 1007.5 |
| 20260508233132 | 72 | 159 | 2.0 | 4.0 | 0.00 | 0.13 | 0.13 | 82 | 1007.4 |
| 20260508231559 | 72 | 150 | 2.0 | 6.0 | 0.00 | 0.13 | 0.13 | 82 | 1007.4 |
| 20260508230100 | 72 | 167 | 4.0 | 7.0 | 0.00 | 0.13 | 0.13 | 82 | 1007.5 |
| 20260508224618 | 72 | 121 | 4.0 | 8.0 | 0.00 | 0.13 | 0.13 | 82 | 1007.5 |
| 20260508223057 | 72 | 92 | 5.0 | 10.0 | 0.00 | 0.13 | 0.13 | 82 | 1007.5 |
| 20260508221554 | 71 | 125 | 5.0 | 9.0 | 0.00 | 0.13 | 0.13 | 83 | 1007.6 |
| 20260508220055 | 70 | 126 | 6.0 | 10.0 | 0.00 | 0.13 | 0.13 | 83 | 1007.8 |
| 20260508214549 | 69 | 123 | 8.0 | 11.0 | 0.00 | 0.13 | 0.13 | 84 | 1008.0 |
| 20260508213049 | 68 | 117 | 3.0 | 6.0 | 0.00 | 0.13 | 0.13 | 84 | 1008.3 |
| 20260508211547 | 67 | 163 | 2.0 | 4.0 | 0.05 | 0.13 | 0.13 | 84 | 1008.7 |
| 20260508210048 | 66 | 146 | 2.0 | 4.0 | 0.05 | 0.13 | 0.13 | 84 | 1008.9 |
| 20260508204550 | 66 | 178 | 3.0 | 7.0 | 0.09 | 0.13 | 0.13 | 84 | 1009.1 |
| 20260508203053 | 65 | 267 | 1.0 | 4.0 | 0.13 | 0.13 | 0.13 | 84 | 1009.5 |
| 20260508201545 | 65 | 167 | 3.0 | 7.0 | 0.08 | 0.08 | 0.08 | 84 | 1009.2 |
| 20260508200051 | 65 | 92 | 9.0 | 13.0 | 0.08 | 0.08 | 0.08 | 84 | 1008.0 |
| 20260508194542 | 68 | 114 | 5.0 | 8.0 | 0.04 | 0.04 | 0.04 | 81 | 1009.6 |
| 20260508193043 | 68 | 167 | 3.0 | 8.0 | 0.00 | 0.00 | 0.00 | 78 | 1010.6 |
| 20260508191549 | 70 | 139 | 4.0 | 10.0 | 0.00 | 0.00 | 0.00 | 75 | 1010.5 |
| 20260508190040 | 69 | 143 | 9.0 | 12.0 | 0.00 | 0.00 | 0.00 | 76 | 1010.2 |
| 20260508184537 | 69 | 150 | 7.0 | 14.0 | 0.00 | 0.00 | 0.00 | 75 | 1010.5 |
| 20260508183034 | 69 | 157 | 7.0 | 12.0 | 0.00 | 0.00 | 0.00 | 75 | 1010.8 |
| 20260508181536 | 69 | 165 | 7.0 | 10.0 | 0.00 | 0.00 | 0.00 | 74 | 1011.1 |
| 20260508180032 | 70 | 134 | 6.0 | 10.0 | 0.00 | 0.00 | 0.00 | 73 | 1011.3 |
| 20260508174531 | 69 | 159 | 6.0 | 10.0 | 0.00 | 0.00 | 0.00 | 72 | 1011.1 |
| 20260508173028 | 70 | 132 | 7.0 | 11.0 | 0.00 | 0.00 | 0.00 | 73 | 1011.4 |
| 20260508171527 | 68 | 139 | 4.0 | 8.0 | 0.00 | 0.00 | 0.00 | 75 | 1011.7 |
| 20260508170021 | 68 | 187 | 5.0 | 8.0 | 0.00 | 0.00 | 0.00 | 76 | 1012.2 |
| 20260508164520 | 68 | 157 | 5.0 | 9.0 | 0.00 | 0.00 | 0.00 | 75 | 1012.2 |
| 20260508163018 | 67 | 102 | 5.0 | 9.0 | 0.00 | 0.00 | 0.00 | 75 | 1012.2 |
| 20260508161515 | 66 | 94 | 8.0 | 11.0 | 0.00 | 0.00 | 0.00 | 77 | 1012.3 |
| 20260508160015 | 65 | 109 | 8.0 | 13.0 | 0.00 | 0.00 | 0.00 | 78 | 1012.8 |
| 20260508154506 | 64 | 114 | 6.0 | 9.0 | 0.00 | 0.00 | 0.00 | 80 | 1013.0 |
| 20260508153005 | 63 | 125 | 5.0 | 10.0 | 0.00 | 0.00 | 0.00 | 80 | 1013.0 |
| 20260508151504 | 63 | 124 | 5.0 | 7.0 | 0.00 | 0.00 | 0.00 | 80 | 1013.4 |
| 20260508150005 | 63 | 133 | 2.0 | 7.0 | 0.00 | 0.00 | 0.00 | 79 | 1013.5 |
| 20260508144503 | 63 | 166 | 4.0 | 7.0 | 0.00 | 0.00 | 0.00 | 78 | 1013.6 |
| 20260508143002 | 63 | 94 | 4.0 | 7.0 | 0.00 | 0.00 | 0.00 | 78 | 1013.4 |